This demonstration page uses our WeatherBlox Daily Observations layout. Learn more.

Left ArrowRight Arrow

Hourly Observations for April 6, 2021

Temp ( °F °C ) Dew Point ( °F °C ) Humidity (%) Winds ( mph kmh ) Pressure ( in mb ) Visibility ( mi km ) Precip ( " mm )
12:53 am 00:53 Clear 52 11.1 43 6.1 72 72 Calm 29.97 1015 10 16 0.00 0.00
1:53 am 01:53 Clear 50 10 43 6.1 77 77 NNE 5 7 29.98 1015 10 16 0.00 0.00
2:53 am 02:53 Clear 48 8.9 42 5.6 80 80 Calm 29.97 1015 10 16 0.00 0.00
3:53 am 03:53 Clear 48 9 N/A N/A Calm 29.98 1015 10 16 0.00 0.00
4:53 am 04:53 Clear 46 8 N/A N/A Calm 29.98 1015 10 16 0.00 0.00
5:53 am 05:53 Clear 45 7 N/A N/A Calm 29.99 1016 10 16 0.00 0.00
6:53 am 06:53 Sunny 45 7 N/A N/A Calm 30.00 1016 10 16 0.00 0.00
7:53 am 07:53 Sunny 49 9.4 42 5.6 77 77 Calm 30.01 1016 10 16 0.00 0.00
8:53 am 08:53 Sunny 55 12.8 41 5 59 59 NNE 3 6 30.01 1016 10 16 0.00 0.00
9:53 am 09:53 Sunny 61 16.1 34 1.1 36 36 NW 3 6 30.01 1016 10 16 0.00 0.00
10:53 am 10:53 Sunny 67 19.4 35 1.7 31 31 Calm 30.02 1017 10 16 0.00 0.00
11:53 am 11:53 Sunny 69 20.6 33 0.6 26 26 VRB 5 7 30.00 1016 10 16 0.00 0.00
12:53 pm 12:53 Sunny 71 21.7 33 0.6 25 25 Calm 29.98 1015 10 16 0.00 0.00
1:53 pm 13:53 Sunny 73 22.8 36 2.2 26 26 VRB 3 6 29.96 1015 10 16 0.00 0.00
2:53 pm 14:53 Sunny 75 23.9 37 2.8 25 25 undefined N/A 29.94 1014 10 16 0.00 0.00
3:53 pm 15:53 Sunny 76 24.4 38 3.3 25 25 SSW 8 13 29.93 1014 10 16 0.00 0.00
4:53 pm 16:53 Sunny 77 25 38 3.3 24 24 SSE 10 17 29.92 1013 10 16 0.00 0.00
5:53 pm 17:53 Sunny 75 23.9 39 3.9 27 27 S 9 15 29.93 1013 10 16 0.00 0.00
6:53 pm 18:53 Sunny 72 22.2 45 7.2 38 38 S 8 13 29.93 1014 10 16 0.00 0.00
7:53 pm 19:53 Clear 69 20.6 46 7.8 44 44 S 6 9 29.93 1014 10 16 0.00 0.00
8:53 pm 20:53 Clear 67 19.4 46 7.8 47 47 Calm 29.96 1014 10 16 0.00 0.00
9:53 pm 21:53 Clear 60 15.6 48 8.9 65 65 Calm 29.98 1015 10 16 0.00 0.00
10:53 pm 22:53 Clear 61 16.1 47 8.3 60 60 NE 3 6 30.00 1016 10 16 0.00 0.00
11:53 pm 23:53 Clear 57 13.9 47 8.3 69 69 Calm 30.01 1016 10 16 0.00 0.00

Powered by AerisWeather